Location: Cape Canaveral
(28.3922°N, 80.6077°W)
Time: 12:26:59
(UTC-05:00)

ISS - Pass Details

Date: 08 December 2021
Orbit: 413 x 422 km, 51.6° (Epoch: 27 January)

Event Time Altitude Azimuth Distance (km) Brightness Sun altitude
Rises 18:06:33 0° 326° (NW) 2,375 0.2 -9.0°
Reaches altitude 10° 18:08:46 10° 335° (NNW) 1,506 -0.9 -9.4°
Maximum altitude 18:11:54 35° 43° (NE) 700 -3.1 -10.1°
Drops below altitude 10° 18:15:01 10° 111° (ESE) 1,493 -1.4 -10.7°
Enters shadow 18:15:14 - 113° (ESE) 1,577 -1.3 -10.7°
